| time (UTC) | temp F | wind direction | speed MPH | gust MPH | rain 1hr in | rain 24hr in | rain mn in | humidity % | barometer mb |
| 20260510133830 | 53 | 166 | 0.0 | 0.0 | 0.00 | 0.00 | 0.00 | 93 | 1009.9 |
| 20260510133326 | 53 | 246 | 0.0 | 2.0 | 0.00 | 0.00 | 0.00 | 91 | 1009.7 |
| 20260510132822 | 53 | 184 | 0.0 | 4.0 | 0.00 | 0.00 | 0.00 | 91 | 1009.7 |
| 20260510132320 | 53 | 215 | 1.0 | 1.0 | 0.00 | 0.00 | 0.00 | 91 | 1009.8 |
| 20260510131817 | 52 | 141 | 0.0 | 1.0 | 0.00 | 0.00 | 0.00 | 92 | 1009.8 |
| 20260510131314 | 52 | 114 | 2.0 | 3.0 | 0.00 | 0.00 | 0.00 | 90 | 1009.8 |
| 20260510130811 | 53 | 290 | 1.0 | 3.0 | 0.00 | 0.00 | 0.00 | 90 | 1009.9 |
| 20260510130308 | 53 | 142 | 1.0 | 1.0 | 0.00 | 0.00 | 0.00 | 89 | 1010.0 |
| 20260510125804 | 53 | 234 | 0.0 | 0.0 | 0.00 | 0.00 | 0.00 | 91 | 1009.7 |
| 20260510125300 | 53 | 183 | 1.0 | 1.0 | 0.00 | 0.00 | 0.00 | 91 | 1009.7 |
| 20260510124757 | 53 | 210 | 0.0 | 0.0 | 0.00 | 0.00 | 0.00 | 91 | 1009.5 |
| 20260510124254 | 53 | 303 | 0.0 | 1.0 | 0.00 | 0.00 | 0.00 | 90 | 1009.5 |
| 20260510123750 | 53 | 225 | 0.0 | 0.0 | 0.00 | 0.00 | 0.00 | 90 | 1009.3 |
| 20260510123246 | 53 | 127 | 1.0 | 2.0 | 0.00 | 0.00 | 0.00 | 91 | 1009.2 |
| 20260510122742 | 53 | 194 | 0.0 | 1.0 | 0.00 | 0.00 | 0.00 | 89 | 1009.3 |
| 20260510122238 | 53 | 155 | 2.0 | 2.0 | 0.00 | 0.00 | 0.00 | 91 | 1009.3 |
| 20260510121734 | 53 | 85 | 1.0 | 2.0 | 0.00 | 0.00 | 0.00 | 91 | 1009.3 |
| 20260510121232 | 52 | 178 | 0.0 | 1.0 | 0.00 | 0.00 | 0.00 | 93 | 1009.2 |
| 20260510120724 | 52 | 203 | 0.0 | 1.0 | 0.00 | 0.00 | 0.00 | 92 | 1009.4 |
| 20260510120220 | 52 | 183 | 0.0 | 0.0 | 0.00 | 0.00 | 0.00 | 94 | 1009.3 |
| 20260510115716 | 51 | 221 | 0.0 | 2.0 | 0.00 | 0.00 | 0.00 | 94 | 1009.1 |
| 20260510115215 | 51 | 223 | 0.0 | 0.0 | 0.00 | 0.00 | 0.00 | 96 | 1009.0 |
| 20260510114709 | 51 | 226 | 0.0 | 0.0 | 0.00 | 0.00 | 0.00 | 95 | 1009.1 |
| 20260510114207 | 51 | 286 | 0.0 | 0.0 | 0.00 | 0.00 | 0.00 | 94 | 1009.2 |
| 20260510113701 | 52 | 278 | 0.0 | 0.0 | 0.00 | 0.00 | 0.00 | 94 | 1009.1 |
| 20260510113158 | 52 | 134 | 0.0 | 0.0 | 0.00 | 0.00 | 0.00 | 94 | 1008.7 |
| 20260510112654 | 51 | 164 | 0.0 | 0.0 | 0.00 | 0.00 | 0.00 | 95 | 1008.7 |
| 20260510112152 | 50 | 202 | 0.0 | 1.0 | 0.00 | 0.00 | 0.00 | 96 | 1008.6 |
| 20260510111642 | 50 | 197 | 0.0 | 0.0 | 0.00 | 0.00 | 0.00 | 99 | 1008.4 |
| 20260510111139 | 49 | 199 | 0.0 | 0.0 | 0.00 | 0.00 | 0.00 | 99 | 1008.4 |
| 20260510110634 | 48 | 203 | 0.0 | 0.0 | 0.00 | 0.00 | 0.00 | 99 | 1008.6 |
| 20260510110132 | 47 | 206 | 0.0 | 0.0 | 0.00 | 0.00 | 0.00 | 99 | 1008.7 |
| 20260510105627 | 47 | 213 | 0.0 | 0.0 | 0.00 | 0.47 | 0.47 | 99 | 1008.3 |
| 20260510105126 | 46 | 214 | 0.0 | 0.0 | 0.00 | 0.47 | 0.47 | 99 | 1008.1 |
| 20260510104624 | 46 | 215 | 0.0 | 0.0 | 0.00 | 0.47 | 0.47 | 99 | 1008.2 |
| 20260510104120 | 46 | 234 | 0.0 | 0.0 | 0.00 | 0.47 | 0.47 | 99 | 1008.1 |
| 20260510103617 | 46 | 212 | 0.0 | 0.0 | 0.00 | 0.47 | 0.47 | 99 | 1008.0 |
| 20260510103113 | 46 | 212 | 0.0 | 0.0 | 0.00 | 0.47 | 0.47 | 99 | 1007.9 |
| 20260510102608 | 46 | 212 | 0.0 | 0.0 | 0.00 | 0.47 | 0.47 | 99 | 1008.0 |
| 20260510102104 | 46 | 212 | 0.0 | 0.0 | 0.00 | 0.47 | 0.47 | 99 | 1007.7 |
| 20260510101602 | 46 | 212 | 0.0 | 0.0 | 0.00 | 0.47 | 0.47 | 99 | 1007.6 |
| 20260510101101 | 46 | 202 | 0.0 | 0.0 | 0.00 | 0.47 | 0.47 | 99 | 1007.6 |
| 20260510100556 | 46 | 194 | 0.0 | 0.0 | 0.00 | 0.47 | 0.47 | 99 | 1007.7 |
| 20260510100054 | 46 | 193 | 0.0 | 0.0 | 0.00 | 0.47 | 0.47 | 99 | 1007.8 |
| 20260510095550 | 46 | 184 | 0.0 | 0.0 | 0.00 | 0.47 | 0.47 | 99 | 1007.6 |
| 20260510095049 | 46 | 193 | 0.0 | 0.0 | 0.00 | 0.47 | 0.47 | 99 | 1007.8 |
| 20260510094544 | 46 | 196 | 0.0 | 0.0 | 0.00 | 0.47 | 0.47 | 99 | 1007.7 |
| 20260510094039 | 46 | 180 | 0.0 | 0.0 | 0.00 | 0.47 | 0.47 | 99 | 1007.6 |
| 20260510093535 | 46 | 187 | 0.0 | 0.0 | 0.00 | 0.47 | 0.47 | 99 | 1007.3 |
| 20260510093032 | 46 | 206 | 0.0 | 0.0 | 0.00 | 0.47 | 0.47 | 99 | 1007.4 |
| 20260510092530 | 46 | 193 | 0.0 | 0.0 | 0.00 | 0.47 | 0.47 | 99 | 1007.3 |
| 20260510092029 | 46 | 187 | 0.0 | 0.0 | 0.00 | 0.47 | 0.47 | 99 | 1007.4 |
| 20260510091526 | 46 | 182 | 0.0 | 0.0 | 0.00 | 0.47 | 0.47 | 99 | 1007.5 |
| 20260510091022 | 46 | 203 | 0.0 | 0.0 | 0.00 | 0.47 | 0.47 | 99 | 1007.4 |
| 20260510090519 | 46 | 194 | 0.0 | 0.0 | 0.00 | 0.47 | 0.47 | 99 | 1007.1 |
| 20260510090015 | 46 | 204 | 0.0 | 0.0 | 0.00 | 0.47 | 0.47 | 99 | 1007.3 |
| 20260510085510 | 46 | 208 | 0.0 | 0.0 | 0.00 | 0.47 | 0.47 | 99 | 1007.2 |
| 20260510085006 | 46 | 203 | 0.0 | 0.0 | 0.00 | 0.47 | 0.47 | 99 | 1007.1 |
| 20260510084503 | 46 | 190 | 0.0 | 1.0 | 0.00 | 0.47 | 0.47 | 99 | 1007.2 |
| 20260510083959 | 46 | 204 | 0.0 | 0.0 | 0.00 | 0.47 | 0.47 | 99 | 1007.1 |
| 20260510083456 | 46 | 185 | 0.0 | 0.0 | 0.00 | 0.47 | 0.47 | 99 | 1007.2 |
| 20260510082951 | 46 | 201 | 0.0 | 0.0 | 0.00 | 0.47 | 0.47 | 99 | 1007.0 |
| 20260510082449 | 46 | 198 | 0.0 | 1.0 | 0.00 | 0.47 | 0.47 | 99 | 1006.9 |
| 20260510081949 | 46 | 215 | 0.0 | 1.0 | 0.00 | 0.47 | 0.47 | 99 | 1007.1 |
| 20260510081444 | 46 | 206 | 0.0 | 0.0 | 0.00 | 0.47 | 0.47 | 99 | 1007.1 |
| 20260510080941 | 46 | 200 | 0.0 | 0.0 | 0.00 | 0.47 | 0.47 | 99 | 1006.8 |
| 20260510080439 | 46 | 211 | 0.0 | 0.0 | 0.00 | 0.47 | 0.47 | 99 | 1006.5 |
| 20260510075936 | 46 | 203 | 0.0 | 0.0 | 0.00 | 0.47 | 0.47 | 99 | 1006.6 |
| 20260510075434 | 46 | 187 | 0.0 | 3.0 | 0.00 | 0.47 | 0.47 | 99 | 1006.5 |
| 20260510074931 | 46 | 209 | 0.0 | 0.0 | 0.00 | 0.47 | 0.47 | 99 | 1006.9 |
| 20260510074428 | 46 | 217 | 0.0 | 0.0 | 0.00 | 0.47 | 0.47 | 99 | 1006.9 |
| 20260510073925 | 47 | 170 | 1.0 | 1.0 | 0.00 | 0.47 | 0.47 | 99 | 1006.5 |
| 20260510073420 | 47 | 202 | 0.0 | 6.0 | 0.00 | 0.47 | 0.47 | 99 | 1006.8 |
| 20260510072917 | 47 | 216 | 0.0 | 0.0 | 0.00 | 0.47 | 0.47 | 99 | 1006.8 |
| 20260510072414 | 47 | 204 | 0.0 | 0.0 | 0.00 | 0.47 | 0.47 | 99 | 1006.8 |
| 20260510071909 | 46 | 275 | 0.0 | 1.0 | 0.00 | 0.47 | 0.47 | 99 | 1006.8 |
| 20260510071406 | 46 | 218 | 0.0 | 0.0 | 0.00 | 0.47 | 0.47 | 99 | 1006.6 |
| 20260510070905 | 47 | 220 | 0.0 | 0.0 | 0.00 | 0.47 | 0.47 | 99 | 1006.8 |
| 20260510070401 | 47 | 156 | 0.0 | 0.0 | 0.00 | 0.47 | 0.47 | 99 | 1006.9 |
| 20260510065856 | 47 | 205 | 0.0 | 0.0 | 0.00 | 0.47 | 0.47 | 99 | 1007.2 |
| 20260510065353 | 47 | 186 | 0.0 | 0.0 | 0.00 | 0.47 | 0.47 | 99 | 1007.3 |
| 20260510064850 | 47 | 206 | 0.0 | 0.0 | 0.05 | 0.47 | 0.47 | 99 | 1007.3 |
| 20260510064348 | 47 | 204 | 0.0 | 0.0 | 0.05 | 0.47 | 0.47 | 99 | 1007.6 |
| 20260510063844 | 47 | 212 | 0.0 | 0.0 | 0.00 | 0.46 | 0.46 | 99 | 1007.7 |
| 20260510063340 | 47 | 212 | 0.0 | 0.0 | 0.00 | 0.46 | 0.46 | 99 | 1007.7 |
| 20260510062837 | 47 | 211 | 0.0 | 0.0 | 0.00 | 0.46 | 0.46 | 99 | 1007.9 |
| 20260510062333 | 47 | 212 | 0.0 | 0.0 | 0.00 | 0.46 | 0.46 | 99 | 1007.9 |
| 20260510061828 | 47 | 212 | 0.0 | 0.0 | 0.00 | 0.46 | 0.46 | 99 | 1008.0 |
| 20260510061325 | 47 | 212 | 0.0 | 0.0 | 0.00 | 0.46 | 0.46 | 99 | 1008.1 |
| 20260510060821 | 47 | 212 | 0.0 | 0.0 | 0.00 | 0.46 | 0.46 | 99 | 1008.1 |
| 20260510060319 | 47 | 213 | 0.0 | 0.0 | 0.00 | 0.46 | 0.46 | 99 | 1008.4 |
| 20260510055815 | 47 | 213 | 0.0 | 0.0 | 0.00 | 0.46 | 0.46 | 99 | 1008.4 |
| 20260510055314 | 47 | 214 | 0.0 | 0.0 | 0.00 | 0.46 | 0.46 | 99 | 1008.6 |
| 20260510054814 | 48 | 213 | 0.0 | 0.0 | 0.00 | 0.46 | 0.46 | 99 | 1008.3 |
| 20260510054309 | 48 | 217 | 0.0 | 0.0 | 0.00 | 0.46 | 0.46 | 99 | 1008.2 |
| 20260510053804 | 48 | 217 | 0.0 | 0.0 | 0.00 | 0.46 | 0.46 | 99 | 1008.4 |
| 20260510053259 | 48 | 226 | 0.0 | 0.0 | 0.00 | 0.46 | 0.46 | 99 | 1008.2 |
| 20260510052755 | 48 | 238 | 0.0 | 0.0 | 0.00 | 0.46 | 0.46 | 99 | 1008.6 |
| 20260510052251 | 48 | 226 | 0.0 | 0.0 | 0.00 | 0.46 | 0.46 | 99 | 1008.7 |
| 20260510051748 | 47 | 260 | 0.0 | 0.0 | 0.00 | 0.46 | 0.46 | 99 | 1008.7 |
| 20260510051245 | 46 | 262 | 0.0 | 0.0 | 0.00 | 0.46 | 0.46 | 99 | 1008.3 |
| 20260510050741 | 46 | 232 | 0.0 | 0.0 | 0.00 | 0.46 | 0.46 | 99 | 1008.2 |
| 20260510050238 | 46 | 239 | 0.0 | 0.0 | 0.00 | 0.46 | 0.46 | 99 | 1008.1 |
| 20260510045735 | 46 | 218 | 0.0 | 0.0 | 0.00 | 0.46 | 0.46 | 99 | 1007.7 |
| 20260510045232 | 46 | 226 | 0.0 | 0.0 | 0.00 | 0.46 | 0.46 | 99 | 1007.6 |
| 20260510044728 | 46 | 181 | 0.0 | 1.0 | 0.00 | 0.46 | 0.46 | 99 | 1007.5 |
| 20260510044226 | 47 | 175 | 1.0 | 4.0 | 0.00 | 0.46 | 0.46 | 99 | 1007.6 |
| 20260510043721 | 46 | 191 | 1.0 | 2.0 | 0.00 | 0.46 | 0.46 | 99 | 1007.6 |
| 20260510043218 | 46 | 196 | 0.0 | 3.0 | 0.00 | 0.46 | 0.46 | 99 | 1007.5 |
| 20260510042715 | 46 | 178 | 0.0 | 0.0 | 0.00 | 0.46 | 0.46 | 99 | 1007.4 |
| 20260510042211 | 46 | 206 | 0.0 | 0.0 | 0.00 | 0.46 | 0.46 | 99 | 1007.2 |
| 20260510041709 | 46 | 177 | 1.0 | 2.0 | 0.00 | 0.46 | 0.46 | 99 | 1007.4 |
| 20260510041206 | 45 | 201 | 0.0 | 0.0 | 0.00 | 0.46 | 0.46 | 99 | 1007.5 |
| 20260510040702 | 45 | 191 | 1.0 | 3.0 | 0.00 | 0.46 | 0.46 | 99 | 1007.5 |
| 20260510040159 | 44 | 199 | 0.0 | 0.0 | 0.00 | 0.46 | 0.46 | 99 | 1007.3 |
| 20260510035655 | 45 | 214 | 0.0 | 0.0 | 0.00 | 0.46 | 0.46 | 99 | 1007.4 |
| 20260510035150 | 46 | 227 | 0.0 | 0.0 | 0.00 | 0.46 | 0.46 | 99 | 1007.3 |
| 20260510034647 | 45 | 210 | 0.0 | 0.0 | 0.00 | 0.46 | 0.46 | 99 | 1007.1 |
| 20260510034144 | 45 | 224 | 0.0 | 0.0 | 0.00 | 0.46 | 0.46 | 99 | 1006.9 |
| 20260510033641 | 45 | 204 | 0.0 | 1.0 | 0.00 | 0.46 | 0.46 | 99 | 1006.9 |
| 20260510033139 | 45 | 209 | 0.0 | 0.0 | 0.00 | 0.46 | 0.46 | 99 | 1007.1 |
| 20260510032635 | 44 | 220 | 0.0 | 0.0 | 0.00 | 0.46 | 0.46 | 99 | 1007.1 |
| 20260510032130 | 44 | 202 | 0.0 | 1.0 | 0.00 | 0.46 | 0.46 | 99 | 1006.9 |
| 20260510031625 | 45 | 205 | 0.0 | 0.0 | 0.00 | 0.46 | 0.46 | 99 | 1006.8 |
| 20260510031122 | 45 | 196 | 0.0 | 0.0 | 0.00 | 0.46 | 0.46 | 99 | 1006.8 |
| 20260510030617 | 45 | 178 | 0.0 | 0.0 | 0.00 | 0.46 | 0.46 | 99 | 1006.9 |
| 20260510030115 | 46 | 208 | 0.0 | 0.0 | 0.00 | 0.46 | 0.46 | 99 | 1007.1 |
| 20260510025611 | 46 | 215 | 0.0 | 0.0 | 0.00 | 0.46 | 0.46 | 99 | 1007.1 |
| 20260510025109 | 46 | 221 | 0.0 | 0.0 | 0.00 | 0.46 | 0.46 | 99 | 1007.0 |
| 20260510024605 | 46 | 222 | 0.0 | 0.0 | 0.00 | 0.46 | 0.46 | 99 | 1007.0 |
| 20260510024056 | 46 | 203 | 0.0 | 0.0 | 0.00 | 0.46 | 0.46 | 99 | 1007.1 |
| 20260510023552 | 47 | 209 | 0.0 | 1.0 | 0.00 | 0.46 | 0.46 | 99 | 1007.0 |
| 20260510023051 | 46 | 152 | 1.0 | 2.0 | 0.00 | 0.46 | 0.46 | 99 | 1007.1 |
| 20260510022549 | 46 | 183 | 0.0 | 0.0 | 0.00 | 0.46 | 0.46 | 99 | 1006.9 |
| 20260510022043 | 46 | 203 | 0.0 | 0.0 | 0.00 | 0.46 | 0.46 | 99 | 1007.0 |
| 20260510021540 | 46 | 204 | 0.0 | 0.0 | 0.00 | 0.46 | 0.46 | 99 | 1007.1 |
| 20260510021038 | 46 | 224 | 0.0 | 0.0 | 0.00 | 0.46 | 0.46 | 99 | 1006.9 |
| 20260510020532 | 46 | 222 | 0.0 | 0.0 | 0.00 | 0.46 | 0.46 | 99 | 1006.9 |
| 20260510020028 | 47 | 205 | 0.0 | 0.0 | 0.00 | 0.46 | 0.46 | 99 | 1006.6 |
| 20260510015524 | 47 | 218 | 0.0 | 0.0 | 0.00 | 0.46 | 0.46 | 99 | 1006.6 |
| 20260510015020 | 47 | 181 | 2.0 | 3.0 | 0.00 | 0.46 | 0.46 | 99 | 1006.6 |
| 20260510014516 | 46 | 190 | 0.0 | 0.0 | 0.00 | 0.46 | 0.46 | 99 | 1007.0 |
| 20260510014014 | 46 | 178 | 0.0 | 0.0 | 0.00 | 0.46 | 0.46 | 99 | 1006.9 |
| 20260510013508 | 46 | 198 | 0.0 | 0.0 | 0.00 | 0.46 | 0.46 | 99 | 1007.1 |
| 20260510013004 | 46 | 181 | 0.0 | 1.0 | 0.00 | 0.46 | 0.46 | 99 | 1007.0 |
| 20260510012458 | 46 | 198 | 0.0 | 1.0 | 0.00 | 0.46 | 0.46 | 99 | 1006.9 |
| 20260510011954 | 46 | 214 | 0.0 | 0.0 | 0.00 | 0.46 | 0.46 | 99 | 1006.9 |
| 20260510011449 | 46 | 201 | 0.0 | 1.0 | 0.00 | 0.46 | 0.46 | 99 | 1007.0 |
| 20260510010945 | 46 | 188 | 0.0 | 0.0 | 0.00 | 0.46 | 0.46 | 99 | 1006.8 |
| 20260510010443 | 47 | 195 | 0.0 | 2.0 | 0.00 | 0.46 | 0.46 | 99 | 1006.8 |
| 20260510005939 | 47 | 219 | 0.0 | 0.0 | 0.00 | 0.46 | 0.46 | 99 | 1006.8 |
| 20260510005435 | 47 | 216 | 0.0 | 0.0 | 0.00 | 0.46 | 0.46 | 99 | 1006.4 |
| 20260510004933 | 47 | 202 | 0.0 | 0.0 | 0.00 | 0.46 | 0.46 | 99 | 1006.3 |
| 20260510004430 | 47 | 215 | 0.0 | 1.0 | 0.00 | 0.46 | 0.46 | 99 | 1006.4 |
| 20260510003928 | 48 | 209 | 0.0 | 0.0 | 0.00 | 0.46 | 0.46 | 99 | 1006.4 |
| 20260510003425 | 48 | 175 | 0.0 | 0.0 | 0.00 | 0.46 | 0.46 | 99 | 1006.5 |
| 20260510002924 | 48 | 199 | 0.0 | 2.0 | 0.00 | 0.46 | 0.46 | 99 | 1006.5 |
| 20260510002421 | 48 | 337 | 2.0 | 2.0 | 0.00 | 0.46 | 0.46 | 99 | 1006.6 |
| 20260510001918 | 48 | 195 | 0.0 | 1.0 | 0.00 | 0.46 | 0.46 | 99 | 1006.6 |
| 20260510001415 | 49 | 220 | 0.0 | 1.0 | 0.00 | 0.46 | 0.46 | 99 | 1006.4 |
| 20260510000912 | 49 | 207 | 0.0 | 2.0 | 0.00 | 0.46 | 0.46 | 99 | 1006.3 |
| 20260510000411 | 49 | 118 | 0.0 | 2.0 | 0.00 | 0.46 | 0.46 | 99 | 1006.2 |
| 20260509235905 | 49 | 133 | 1.0 | 2.0 | 0.00 | 0.46 | 0.46 | 99 | 1006.1 |
| 20260509235402 | 49 | 199 | 0.0 | 0.0 | 0.00 | 0.46 | 0.46 | 99 | 1006.0 |
| 20260509234858 | 49 | 198 | 0.0 | 0.0 | 0.00 | 0.46 | 0.46 | 99 | 1006.1 |
| 20260509234355 | 49 | 205 | 0.0 | 0.0 | 0.00 | 0.46 | 0.46 | 99 | 1005.7 |
| 20260509233853 | 50 | 169 | 1.0 | 2.0 | 0.00 | 0.46 | 0.46 | 99 | 1005.5 |
| 20260509233351 | 50 | 222 | 0.0 | 0.0 | 0.00 | 0.46 | 0.46 | 99 | 1005.5 |
| 20260509232846 | 50 | 166 | 0.0 | 1.0 | 0.00 | 0.46 | 0.46 | 99 | 1005.6 |
| 20260509232345 | 50 | 188 | 0.0 | 1.0 | 0.00 | 0.46 | 0.46 | 99 | 1005.8 |
| 20260509231840 | 50 | 152 | 0.0 | 1.0 | 0.00 | 0.46 | 0.46 | 99 | 1005.8 |
| 20260509231337 | 49 | 218 | 0.0 | 1.0 | 0.00 | 0.46 | 0.46 | 99 | 1005.5 |
| 20260509230835 | 49 | 200 | 0.0 | 2.0 | 0.00 | 0.46 | 0.46 | 99 | 1005.8 |
| 20260509230332 | 49 | 158 | 2.0 | 2.0 | 0.00 | 0.46 | 0.46 | 99 | 1005.6 |
| 20260509225827 | 49 | 209 | 0.0 | 0.0 | 0.00 | 0.46 | 0.46 | 99 | 1005.6 |
| 20260509225324 | 49 | 202 | 0.0 | 0.0 | 0.00 | 0.46 | 0.46 | 99 | 1005.5 |
| 20260509224820 | 49 | 239 | 0.0 | 2.0 | 0.00 | 0.46 | 0.46 | 99 | 1005.5 |
| 20260509224316 | 49 | 226 | 1.0 | 2.0 | 0.00 | 0.46 | 0.46 | 99 | 1005.3 |
| 20260509223813 | 49 | 201 | 1.0 | 2.0 | 0.00 | 0.46 | 0.46 | 99 | 1005.5 |
| 20260509223310 | 49 | 208 | 1.0 | 3.0 | 0.00 | 0.46 | 0.46 | 99 | 1005.4 |
| 20260509222807 | 49 | 345 | 0.0 | 1.0 | 0.00 | 0.46 | 0.46 | 99 | 1005.1 |
| 20260509222306 | 49 | 231 | 0.0 | 2.0 | 0.00 | 0.46 | 0.46 | 99 | 1005.5 |
| 20260509221758 | 49 | 143 | 1.0 | 3.0 | 0.00 | 0.46 | 0.46 | 99 | 1005.7 |
| 20260509221255 | 49 | 113 | 0.0 | 3.0 | 0.00 | 0.46 | 0.46 | 99 | 1005.4 |
| 20260509220750 | 50 | 242 | 1.0 | 2.0 | 0.00 | 0.46 | 0.46 | 98 | 1005.6 |
| 20260509220247 | 50 | 102 | 0.0 | 2.0 | 0.00 | 0.46 | 0.46 | 98 | 1005.5 |
| 20260509215742 | 50 | 217 | 0.0 | 6.0 | 0.00 | 0.46 | 0.46 | 98 | 1005.8 |
| 20260509215239 | 50 | 180 | 1.0 | 2.0 | 0.00 | 0.46 | 0.46 | 98 | 1005.8 |
| 20260509214736 | 50 | 137 | 2.0 | 2.0 | 0.00 | 0.46 | 0.46 | 98 | 1005.8 |
| 20260509214234 | 50 | 154 | 0.0 | 3.0 | 0.00 | 0.46 | 0.46 | 98 | 1005.8 |
| 20260509213731 | 50 | 192 | 0.0 | 2.0 | 0.00 | 0.46 | 0.46 | 99 | 1005.9 |
| 20260509213226 | 50 | 232 | 0.0 | 2.0 | 0.00 | 0.46 | 0.46 | 98 | 1005.9 |
| 20260509212724 | 50 | 163 | 1.0 | 1.0 | 0.00 | 0.46 | 0.46 | 98 | 1006.1 |
| 20260509212220 | 50 | 18 | 0.0 | 3.0 | 0.00 | 0.46 | 0.46 | 98 | 1005.9 |
| 20260509211716 | 50 | 263 | 2.0 | 6.0 | 0.00 | 0.46 | 0.46 | 98 | 1005.9 |
| 20260509211213 | 50 | 55 | 1.0 | 6.0 | 0.00 | 0.46 | 0.46 | 98 | 1006.1 |
| 20260509210709 | 50 | 232 | 0.0 | 3.0 | 0.00 | 0.46 | 0.46 | 98 | 1005.8 |
| 20260509210208 | 50 | 92 | 2.0 | 3.0 | 0.00 | 0.46 | 0.46 | 98 | 1006.0 |
| 20260509205707 | 50 | 339 | 1.0 | 4.0 | 0.00 | 0.46 | 0.46 | 98 | 1005.8 |
| 20260509205206 | 50 | 249 | 1.0 | 2.0 | 0.00 | 0.46 | 0.46 | 98 | 1006.1 |
| 20260509204703 | 50 | 161 | 1.0 | 2.0 | 0.00 | 0.46 | 0.46 | 98 | 1006.0 |
| 20260509204159 | 49 | 292 | 2.0 | 3.0 | 0.00 | 0.46 | 0.46 | 98 | 1006.0 |
| 20260509203655 | 49 | 161 | 2.0 | 4.0 | 0.00 | 0.46 | 0.46 | 98 | 1006.1 |
| 20260509203154 | 49 | 25 | 0.0 | 6.0 | 0.00 | 0.46 | 0.46 | 98 | 1006.1 |
| 20260509202649 | 49 | 230 | 2.0 | 3.0 | 0.07 | 0.46 | 0.46 | 98 | 1006.1 |
| 20260509202144 | 49 | 202 | 3.0 | 6.0 | 0.07 | 0.46 | 0.46 | 99 | 1006.3 |
| 20260509201640 | 49 | 66 | 1.0 | 3.0 | 0.00 | 0.45 | 0.45 | 99 | 1006.1 |
| 20260509201137 | 49 | 102 | 2.0 | 3.0 | 0.00 | 0.45 | 0.45 | 99 | 1006.4 |
| 20260509200632 | 48 | 221 | 2.0 | 3.0 | 0.05 | 0.45 | 0.45 | 99 | 1006.1 |
| 20260509200123 | 48 | 305 | 1.0 | 7.0 | 0.05 | 0.45 | 0.45 | 99 | 1006.2 |
| 20260509195619 | 48 | 167 | 2.0 | 2.0 | 0.00 | 0.44 | 0.44 | 99 | 1006.3 |
| 20260509195114 | 48 | 227 | 0.0 | 2.0 | 0.00 | 0.44 | 0.44 | 99 | 1006.4 |
| 20260509194613 | 49 | 296 | 0.0 | 1.0 | 0.00 | 0.44 | 0.44 | 99 | 1006.6 |
| 20260509194111 | 48 | 205 | 0.0 | 2.0 | 0.00 | 0.44 | 0.44 | 99 | 1006.5 |
| 20260509193606 | 48 | 135 | 3.0 | 4.0 | 0.00 | 0.44 | 0.44 | 99 | 1006.6 |
| 20260509193057 | 48 | 92 | 2.0 | 6.0 | 0.00 | 0.44 | 0.44 | 99 | 1006.6 |
| 20260509192554 | 48 | 165 | 1.0 | 3.0 | 0.00 | 0.44 | 0.44 | 99 | 1006.6 |
| 20260509192048 | 48 | 160 | 1.0 | 3.0 | 0.07 | 0.44 | 0.44 | 99 | 1006.6 |
| 20260509191543 | 48 | 223 | 3.0 | 6.0 | 0.07 | 0.44 | 0.44 | 99 | 1006.9 |
| 20260509191039 | 48 | 206 | 4.0 | 7.0 | 0.00 | 0.43 | 0.43 | 99 | 1006.6 |
| 20260509190536 | 48 | 216 | 0.0 | 2.0 | 0.00 | 0.43 | 0.43 | 99 | 1006.9 |
| 20260509190034 | 48 | 328 | 2.0 | 3.0 | 0.05 | 0.43 | 0.43 | 99 | 1007.0 |
| 20260509185531 | 48 | 78 | 4.0 | 4.0 | 0.05 | 0.43 | 0.43 | 99 | 1006.9 |
| 20260509185027 | 48 | 125 | 1.0 | 4.0 | 0.00 | 0.42 | 0.42 | 99 | 1006.8 |
| 20260509184526 | 48 | 90 | 1.0 | 3.0 | 0.07 | 0.42 | 0.42 | 99 | 1006.8 |
| 20260509184022 | 48 | 86 | 0.0 | 6.0 | 0.07 | 0.42 | 0.42 | 99 | 1006.8 |
| 20260509183517 | 48 | 263 | 0.0 | 2.0 | 0.00 | 0.41 | 0.41 | 99 | 1006.8 |
| 20260509183013 | 48 | 147 | 0.0 | 2.0 | 0.05 | 0.41 | 0.41 | 99 | 1006.8 |
| 20260509182510 | 48 | 191 | 0.0 | 3.0 | 0.05 | 0.41 | 0.41 | 99 | 1006.6 |
| 20260509182007 | 48 | 277 | 0.0 | 3.0 | 0.00 | 0.40 | 0.40 | 99 | 1006.8 |
| 20260509181505 | 48 | 121 | 0.0 | 2.0 | 0.07 | 0.40 | 0.40 | 99 | 1006.5 |
| 20260509181003 | 48 | 336 | 2.0 | 4.0 | 0.07 | 0.40 | 0.40 | 99 | 1006.8 |
| 20260509180457 | 48 | 63 | 2.0 | 6.0 | 0.00 | 0.39 | 0.39 | 99 | 1006.6 |
| 20260509175955 | 48 | 37 | 1.0 | 4.0 | 0.00 | 0.39 | 0.39 | 99 | 1006.6 |
| 20260509175451 | 48 | 63 | 1.0 | 8.0 | 0.05 | 0.39 | 0.39 | 99 | 1006.5 |
| 20260509174947 | 48 | 214 | 0.0 | 3.0 | 0.05 | 0.39 | 0.39 | 99 | 1006.5 |
| 20260509174443 | 48 | 280 | 0.0 | 3.0 | 0.07 | 0.38 | 0.38 | 99 | 1006.5 |
| 20260509173938 | 48 | 209 | 0.0 | 4.0 | 0.07 | 0.38 | 0.38 | 99 | 1006.6 |
| 20260509173433 | 48 | 149 | 1.0 | 3.0 | 0.07 | 0.37 | 0.37 | 99 | 1006.5 |
| 20260509172930 | 48 | 192 | 1.0 | 4.0 | 0.07 | 0.37 | 0.37 | 99 | 1006.5 |
| 20260509172427 | 48 | 152 | 1.0 | 3.0 | 0.05 | 0.36 | 0.36 | 99 | 1006.4 |
| 20260509171923 | 48 | 241 | 1.0 | 2.0 | 0.05 | 0.36 | 0.36 | 99 | 1006.5 |
| 20260509171419 | 48 | 145 | 2.0 | 4.0 | 0.07 | 0.35 | 0.35 | 99 | 1006.9 |
| 20260509170915 | 48 | 80 | 1.0 | 2.0 | 0.12 | 0.35 | 0.35 | 99 | 1006.5 |
| 20260509170411 | 48 | 155 | 2.0 | 6.0 | 0.05 | 0.34 | 0.34 | 99 | 1006.8 |
| 20260509165907 | 48 | 227 | 0.0 | 3.0 | 0.07 | 0.33 | 0.33 | 99 | 1006.6 |
| 20260509165401 | 48 | 224 | 0.0 | 0.0 | 0.07 | 0.33 | 0.33 | 99 | 1006.6 |
| 20260509164857 | 48 | 202 | 0.0 | 1.0 | 0.00 | 0.32 | 0.32 | 99 | 1006.8 |
| 20260509164353 | 48 | 174 | 0.0 | 1.0 | 0.05 | 0.32 | 0.32 | 99 | 1006.6 |
| 20260509163849 | 48 | 205 | 0.0 | 1.0 | 0.05 | 0.32 | 0.32 | 99 | 1006.8 |
| 20260509163346 | 48 | 209 | 0.0 | 1.0 | 0.00 | 0.31 | 0.31 | 99 | 1006.9 |
| 20260509162845 | 48 | 43 | 0.0 | 1.0 | 0.07 | 0.31 | 0.31 | 99 | 1006.9 |
| 20260509162344 | 47 | 211 | 1.0 | 3.0 | 0.07 | 0.31 | 0.31 | 99 | 1007.1 |
| 20260509161840 | 47 | 231 | 0.0 | 0.0 | 0.05 | 0.30 | 0.30 | 99 | 1007.0 |
| 20260509161336 | 47 | 315 | 2.0 | 2.0 | 0.05 | 0.30 | 0.30 | 99 | 1006.9 |
| 20260509160833 | 47 | 207 | 1.0 | 2.0 | 0.07 | 0.29 | 0.29 | 99 | 1007.0 |
| 20260509160329 | 47 | 213 | 1.0 | 2.0 | 0.07 | 0.29 | 0.29 | 99 | 1007.3 |
| 20260509155824 | 47 | 193 | 1.0 | 1.0 | 0.05 | 0.28 | 0.28 | 99 | 1007.1 |
| 20260509155321 | 47 | 165 | 1.0 | 6.0 | 0.05 | 0.28 | 0.28 | 99 | 1007.4 |
| 20260509154817 | 47 | 167 | 1.0 | 2.0 | 0.07 | 0.27 | 0.27 | 99 | 1007.2 |
| 20260509154314 | 47 | 197 | 0.0 | 0.0 | 0.07 | 0.27 | 0.27 | 99 | 1007.4 |
| 20260509153811 | 47 | 159 | 1.0 | 2.0 | 0.12 | 0.26 | 0.26 | 99 | 1007.5 |
| 20260509153307 | 47 | 179 | 0.0 | 0.0 | 0.07 | 0.25 | 0.25 | 99 | 1007.7 |
| 20260509152804 | 47 | 217 | 0.0 | 0.0 | 0.07 | 0.24 | 0.24 | 99 | 1007.7 |
| 20260509152300 | 47 | 176 | 2.0 | 2.0 | 0.12 | 0.24 | 0.24 | 99 | 1007.7 |
| 20260509151757 | 46 | 131 | 1.0 | 2.0 | 0.12 | 0.23 | 0.23 | 99 | 1007.5 |
| 20260509151253 | 46 | 148 | 3.0 | 4.0 | 0.12 | 0.22 | 0.22 | 99 | 1007.7 |
| 20260509150752 | 46 | 207 | 0.0 | 0.0 | 0.05 | 0.21 | 0.21 | 99 | 1007.9 |
| 20260509150250 | 46 | 233 | 0.0 | 0.0 | 0.12 | 0.21 | 0.21 | 99 | 1007.9 |
| 20260509145747 | 46 | 233 | 0.0 | 1.0 | 0.12 | 0.20 | 0.20 | 99 | 1007.9 |
| 20260509145246 | 46 | 108 | 0.0 | 0.0 | 0.12 | 0.19 | 0.19 | 99 | 1008.0 |
| 20260509144743 | 46 | 227 | 0.0 | 0.0 | 0.19 | 0.18 | 0.18 | 99 | 1008.0 |
| 20260509144240 | 46 | 104 | 3.0 | 3.0 | 0.07 | 0.16 | 0.16 | 99 | 1007.9 |
| 20260509143737 | 46 | 185 | 1.0 | 2.0 | 0.05 | 0.15 | 0.15 | 99 | 1008.0 |
| 20260509143234 | 46 | 106 | 2.0 | 3.0 | 0.07 | 0.14 | 0.14 | 99 | 1008.0 |
| 20260509142730 | 46 | 224 | 0.0 | 4.0 | 0.12 | 0.14 | 0.14 | 99 | 1008.0 |
| 20260509142226 | 46 | 145 | 2.0 | 2.0 | 0.12 | 0.13 | 0.13 | 99 | 1008.0 |
| 20260509141722 | 46 | 83 | 0.0 | 1.0 | 0.07 | 0.12 | 0.12 | 99 | 1008.0 |
| 20260509141220 | 46 | 209 | 1.0 | 6.0 | 0.07 | 0.11 | 0.11 | 99 | 1007.8 |
| 20260509140716 | 46 | 241 | 0.0 | 2.0 | 0.12 | 0.11 | 0.11 | 99 | 1007.9 |
| 20260509140214 | 46 | 144 | 2.0 | 2.0 | 0.12 | 0.10 | 0.10 | 99 | 1007.8 |
| 20260509135711 | 46 | 192 | 0.0 | 1.0 | 0.07 | 0.09 | 0.09 | 99 | 1007.9 |
| 20260509135209 | 46 | 213 | 0.0 | 2.0 | 0.05 | 0.08 | 0.08 | 99 | 1007.9 |
| 20260509134705 | 46 | 259 | 0.0 | 2.0 | 0.12 | 0.08 | 0.08 | 99 | 1007.8 |
| 20260509134203 | 46 | 134 | 2.0 | 3.0 | 0.07 | 0.07 | 0.07 | 99 | 1007.9 |